Regional Weather Roundup
Issued by NWS Charleston, WV

Home | Current Version | Previous Version | Text Only | Print | Product List | Glossary Off
Versions: 1 2 3 4 5 6 7 8 9 10 11 12 13 14 15 16 17 18 19 20 21 22 23 24 25 26 27 28 29 30 31 32 33 34 35 36 37 38 39 40 41 42 43 44 45 46 47 48 49 50

000
ASUS41 KRLX 192310
RWRRLX
West Virginia Regional Weather Roundup
National Weather Service Charleston WV
600 PM EST THU JAN 19 2017

Note: "fair" indicates few or no clouds below 12,000 feet with no
significant weather and/or obstructions to visibility.

WVZ003-200000-
Northern Panhandle of West Virginia

CITY           SKY/WX    TMP DP  RH WIND       PRES   REMARKS
WHEELING       CLOUDY    38  33  82 SE5       29.98F
$$

WVZ009-200000-
Northwest West Virginia

CITY           SKY/WX    TMP DP  RH WIND       PRES   REMARKS
PARKERSBURG    CLOUDY    42  37  82 CALM      30.02R
$$

WVZ006-200000-
Western West Virginia

CITY           SKY/WX    TMP DP  RH WIND       PRES   REMARKS
HUNTINGTON     CLOUDY    50  39  66 NE6       29.94F
$$

WVZ015-200000-
West Central West Virginia

CITY           SKY/WX    TMP DP  RH WIND       PRES   REMARKS
CHARLESTON     CLOUDY    50  40  68 NE6       29.95S
$$

WVZ022-031-200000-
North Central West Virginia

CITY           SKY/WX    TMP DP  RH WIND       PRES   REMARKS
CLARKSBURG     CLOUDY    39  36  89 NE3       29.99S
MORGANTOWN     CLOUDY    42  35  76 CALM      30.00F
$$

WVZ025-035-042-045-200000-
Southern West Virginia

CITY           SKY/WX    TMP DP  RH WIND       PRES   REMARKS
BECKLEY        CLOUDY    49  35  58 SE3       29.96R
LOGAN            N/A     52  39  62 CALM      29.94S
BLUEFIELD      CLOUDY    52  34  50 E3        29.97R
LEWISBURG      CLOUDY    44  37  77 NE3       29.98R
$$

WVZ047-200000-
Northern Mountains of West Virginia

CITY           SKY/WX    TMP DP  RH WIND       PRES   REMARKS
ELKINS         CLOUDY    43  38  82 CALM      29.98R
$$

WVZ052-200000-
Eastern Panhandle of West Virginia

CITY           SKY/WX    TMP DP  RH WIND       PRES   REMARKS
MARTINSBURG    CLEAR     43  34  70 CALM      30.01R
PETERSBURG     CLOUDY    42  38  86 CALM      30.00R
$$



USA.gov is the U.S. government's official web portal to all federal, state and local government web resources and services.